Location: Cronhütte
(48.9135°N, 9.6869°E)
Time: 03:01:23
(UTC+00:00)

Cosmos 2219 Rocket - Pass Details

Date: 23 May 2024
Orbit: 826 x 847 km, 71.0° (Epoch: 19 June)

Event Time Altitude Azimuth Distance (km) Brightness Sun altitude
Rises 01:48:47 0° 333° (NNW) 3,399 5.7 -12.8°
Reaches altitude 10° 01:51:16 10° 336° (NNW) 2,464 5.0 -12.5°
Maximum altitude 01:56:53 63° 58° (ENE) 937 2.7 -12.0°
Drops below altitude 10° 02:02:29 10° 140° (SE) 2,461 4.5 -11.4°
Sets 02:04:57 0° 143° (SE) 3,394 5.2 -11.1°
